This demonstration page uses our WeatherBlox Daily Observations layout. Learn more.

Left ArrowRight Arrow

30.21309, -93.2044

Hourly Observations for April 25, 2022

Temp ( °F °C ) Dew Point ( °F °C ) Humidity (%) Winds ( mph kmh ) Pressure ( in mb ) Visibility ( mi km ) Precip ( " mm )
12:15 am 00:15 Cloudy 74 23.1 71 21.7 92 92 SSE 8 13 29.99 1016 10 16 0.00 0.00
12:35 am 00:35 Cloudy 74 23.2 71 21.7 91 91 SSE 8 13 29.99 1016 10 16 0.00 0.00
12:55 am 00:55 Cloudy 74 23.2 71 21.7 91 91 SSE 8 13 29.99 1016 10 16 0.00 0.00
1:15 am 01:15 Cloudy 73 22.9 71 21.6 92 92 SSE 9 15 29.99 1016 10 16 0.00 0.00
1:35 am 01:35 Cloudy 73 22.8 71 21.4 92 92 SE 8 13 29.98 1015 10 16 0.00 0.00
1:55 am 01:55 Cloudy 73 22.6 71 21.4 93 93 SSE 6 9 29.98 1015 10 16 0.00 0.00
2:15 am 02:15 Cloudy 73 22.7 71 21.5 93 93 SSE 6 9 29.99 1016 10 16 0.00 0.00
2:35 am 02:35 Cloudy 73 22.9 71 21.6 92 92 SSE 6 9 29.99 1016 10 16 0.00 0.00
2:55 am 02:55 Cloudy 73 22.9 71 21.5 92 92 SSE 7 11 29.99 1016 10 16 0.00 0.00
3:15 am 03:15 Cloudy 73 22.9 71 21.5 92 92 SSE 6 9 29.99 1016 10 16 0.00 0.00
3:35 am 03:35 Cloudy 74 23.1 71 21.6 91 91 SSE 7 11 29.99 1016 10 16 0.00 0.00
3:55 am 03:55 Cloudy 73 22.9 71 21.5 92 92 SSE 9 15 29.99 1016 10 16 0.00 0.00
4:15 am 04:15 Cloudy 74 23.2 71 21.5 90 90 SSE 8 13 29.99 1016 10 16 0.00 0.00
4:35 am 04:35 Cloudy 74 23.1 71 21.5 91 91 SSE 7 11 29.99 1016 10 16 0.00 0.00
4:55 am 04:55 Cloudy 74 23.1 71 21.5 91 91 SSE 5 7 30.00 1016 10 16 0.00 0.00
5:15 am 05:15 Mostly Cloudy 72 22.1 70 20.9 93 93 SSE 9 15 30.00 1016 7 11 0.00 0.00
5:35 am 05:35 Mostly Cloudy 72 22.4 70 21.3 94 94 SSE 6 9 30.01 1016 7 11 0.00 0.00
6:00 am 06:00 Partly Cloudy 72 22 70 21 94 94 SSE 6 9 30.02 1017 10 16 0.00 0.00
6:50 am 06:50 Mostly Sunny 72 22 70 21 94 94 SE 10 17 30.01 1016 10 16 0.00 0.00
7:53 am 07:53 Mostly Cloudy 73 23 72 22 94 94 SE 7 11 30.04 1017 10 16 0.00 0.00
8:48 am 08:48 Mostly Cloudy 75 24 72 22 89 89 S 8 13 30.07 1018 10 16 0.00 0.00
9:16 am 09:16 Mostly Cloudy 77 25 72 22 83 83 S 9 15 30.07 1018 10 16 0.00 0.00
9:50 am 09:50 Mostly Cloudy 79 26 70 21 74 74 S 6 9 30.08 1019 10 16 0.00 0.00
10:50 am 10:50 Mostly Cloudy 82 28 68 20 62 62 SSE 13 20 30.09 1019 10 16 0.00 0.00
11:50 am 11:50 Mostly Cloudy 84 29 66 19 55 55 SSW 12 19 30.08 1019 10 16 0.00 0.00
12:47 pm 12:47 Mostly Cloudy 86 30 68 20 55 55 SSW 13 20 30.07 1018 10 16 0.00 0.00
1:17 pm 13:17 Cloudy 82 28 64 18 55 55 NNW 23 37 30.09 1019 10 16 0.00 0.00
1:45 pm 13:45 Cloudy with Heavy Rain 64 18 63 17 94 94 N 17 28 30.11 1020 3 4 0.00 0.00
2:30 pm 14:30 Mostly Cloudy 66 19 63 17 88 88 NNE 6 9 30.11 1020 7 11 0.00 0.00
2:45 pm 14:45 Mostly Cloudy 66 19 63 17 88 88 NNE 6 9 30.11 1020 7 11 0.00 0.00
3:50 pm 15:50 Cloudy 68 20 63 17 83 83 ENE 8 13 30.10 1019 7 11 0.00 0.00
4:45 pm 16:45 Cloudy 70 21 63 17 78 78 ENE 8 13 30.11 1020 10 16 0.00 0.00
5:55 pm 17:55 Cloudy with Showers 68 20 63 17 83 83 NNW 12 19 30.13 1020 7 11 0.00 0.00
6:50 pm 18:50 Cloudy 68 20 64 18 88 88 NNW 8 13 30.14 1021 10 16 0.00 0.00
7:55 pm 19:55 Cloudy 66 19 63 17 88 88 NNW 8 13 30.15 1021 10 16 0.00 0.00
8:55 pm 20:55 Cloudy 66 19 63 17 88 88 NNW 8 13 30.18 1022 10 16 0.00 0.00
9:50 pm 21:50 Mostly Cloudy 66 19 63 17 88 88 NNW 7 11 30.20 1023 10 16 0.00 0.00
10:15 pm 22:15 Cloudy 66 18.8 63 17 89 89 NE 6 9 30.19 1022 10 16 0.00 0.00
10:35 pm 22:35 Cloudy 66 18.8 63 17 89 89 NNE 5 7 30.17 1022 10 16 0.00 0.00
10:55 pm 22:55 Partly Cloudy 66 18.9 62 16.9 88 88 ENE 6 9 30.16 1021 10 16 0.00 0.00
11:15 pm 23:15 Clear 66 18.9 62 16.9 88 88 E 9 15 30.13 1020 10 16 0.00 0.00
11:35 pm 23:35 Clear 66 18.8 62 16.9 89 89 E 9 15 30.12 1020 10 16 0.00 0.00
11:55 pm 23:55 Clear 65 18.5 63 17.1 92 92 E 9 15 30.11 1020 10 16 0.00 0.00

Powered by AerisWeather